Regional Weather Roundup
Issued by NWS

Home | Current Version | Previous Version | Graphics & Text | Print | Product List | Glossary On
Versions: 1 2 3 4 5 6 7 8 9 10 11 12 13 14 15 16 17 18 19 20 21 22 23 24 25 26 27 28 29 30 31 32 33 34 35 36 37 38 39 40 41 42 43 44 45 46 47 48 49 50
000
ASUS45 KBOU 291907
RWRCO

WEATHER ROUNDUP FOR COLORADO
NATIONAL WEATHER SERVICE DENVER/BOULDER CO
1200 PM MST THU JAN 29 2015

NOTE: "FAIR" INDICATES FEW OR NO CLOUDS BELOW 12000 FEET WITH NO
SIGNIFICANT WEATHER AND/OR OBSTRUCTIONS TO VISIBILITY.

COZ001>005-013-030-031-292000-
...NORTHWEST COLORADO...

CITY           SKY/WX    TMP DP  RH WIND       PRES   REMARKS
CRAIG          MOSUNNY   37  31  78 CALM      30.38F
HAYDEN         MOSUNNY   36  27  69 N3        30.38F
MEEKER         MOSUNNY   35  25  66 CALM      30.37F
MOUNT WERNER   NOT AVBL
STEAMBOAT SPGS MOSUNNY   35  27  74 CALM      30.38F
WALDEN         MOSUNNY   34  27  75 CALM      30.41F
$$

COZ006>008-011-292000-
...WEST CENTRAL VALLEYS...

CITY           SKY/WX    TMP DP  RH WIND       PRES   REMARKS
GRAND JUNCTION MOSUNNY   50  28  42 E7        30.35F
MONTROSE       PTSUNNY   45  30  55 CALM      30.38F
EAGLE          SUNNY     43  28  56 CALM      30.39F
RIFLE          SUNNY     45  25  45 CALM      30.35F
DELTA          PTSUNNY   46  29  51 CALM      30.38F
NUCLA          PTSUNNY   43  30  61 CALM      30.39F
$$

COZ017>023-064>068-292000-
...SOUTHWEST COLORADO...

CITY           SKY/WX    TMP DP  RH WIND       PRES   REMARKS
DURANGO        CLOUDY    43  30  60 E6        30.40S
CORTEZ         PTSUNNY   49  30  48 W3        30.35F
PAGOSA SPRINGS CLOUDY    44  26  48 S3        30.43S
TELLURIDE      CLOUDY    41  17  38 CALM      30.40F
WOLF CREEK PAS NOT AVBL
$$

COZ009-010-012-014-032>034-037-058>063-292000-
...CENTRAL COLORADO...

CITY           SKY/WX    TMP DP  RH WIND       PRES   REMARKS
ASPEN          MOSUNNY   37  20  50 N7        30.35F
BUENA VISTA    CLOUDY    32  24  72 SE7       30.48F WCI  25
COPPER MTN     SUNNY     30  14  51 E9G18     30.44F WCI  22
BERTHOUD PASS  FAIR      18  12  79 SE14      30.46F WCI   4
COTTONWOOD PAS CLOUDY    30  27  86 SE9       30.47F FOG     WCI  22
GUNNISON       MOSUNNY   21  14  73 E3        30.45F
KREMMLING      MOSUNNY   36  27  69 CALM      30.42F
LEADVILLE      MOSUNNY   26  19  74 S15       30.42F WCI  14
SALIDA         CLOUDY    36  26  66 E9G17     30.56F
SUNLIGHT       MOSUNNY   32  21  64 CALM        N/A
WILKERSON PASS CLOUDY    23  21  93 SW5       30.49F FOG     WCI  17
$$

COZ069>075-292000-
...SAN LUIS VALLEY/SANGRE DE CRISTO MOUNTAINS...

CITY           SKY/WX    TMP DP  RH WIND       PRES   REMARKS
ALAMOSA        PTSUNNY   42  23  46 VRB3      30.42F
LA VETA PASS   NOT AVBL
SAGUACHE       MOSUNNY   37  27  65 SE6       30.43F
$$

COZ035-036-038>040-292000-
...NORTHERN COLORADO FRONT RANGE...

CITY           SKY/WX    TMP DP  RH WIND       PRES   REMARKS
DENVER INTL AP PTSUNNY   45  24  43 SW5       30.48F
DMNS CITY PARK   N/A     45  22  39 E3        30.47F
AURORA         PTSUNNY   41  23  48 E5        30.48F
FRONT RANGE AP PTSUNNY   46  25  42 CALM      30.49F
ERIE MUNI ARPT MOSUNNY   45  24  42 S3        30.48F
BOULDER MUN AP MOSUNNY   45  25  45 S7        30.47F
CENTENNIAL     CLOUDY    39  26  59 E7        30.47F
BROOMFIELD     PTSUNNY   41  27  56 SE6       30.48F
FORT COLLINS   MOSUNNY   46  25  42 S8        30.48F
LONGMONT       MOSUNNY   49  25  38 S9          N/A
$$

COZ041-046-047-076>085-087-088-292000-
...PIKES PEAK/PALMER DIVIDE AND SOUTHERN FOOTHILLS...

CITY           SKY/WX    TMP DP  RH WIND       PRES   REMARKS
COLO. SPRINGS  PTSUNNY   41  26  55 S14       30.50F
A. F. ACADEMY  PTSUNNY   38  24  57 SE7       30.48F
ELLICOTT       CLOUDY   N/A N/A N/A CALM      30.50F
FALCON         CLOUDY    36  24  64 S3        30.50F
FORT CARSON    CLOUDY    42  21  43 S10       30.48F
LIMON          CLOUDY    44  17  33 N9        30.49F
MONUMENT HILL  CLOUDY    32  27  80 SE6       30.47F WCI  26
TRINIDAD       CLOUDY    41  25  53 CALM      30.51F
$$

COZ042>045-048>051-090-091-292000-
...NORTHEAST COLORADO...

CITY           SKY/WX    TMP DP  RH WIND       PRES   REMARKS
GREELEY ARPT   MOSUNNY   46  25  42 SW5       30.47F
AKRON          MOSUNNY   44  19  36 NW12      30.48F
BURLINGTON     SUNNY     46  20  35 N14       30.48F
WRAY           SUNNY     47  17  31 NW10      30.50S
STERLING       MOSUNNY   50  21  32 N13       30.48F
HOLYOKE        SUNNY     46  19  34 NW14G20   30.49F
FORT MORGAN    MOSUNNY   45  19  36 W3        30.49F
$$

COZ086-089-092>099-292000-
...SOUTHEAST COLORADO...

CITY           SKY/WX    TMP DP  RH WIND       PRES   REMARKS
PUEBLO         CLOUDY    48  20  32 E6        30.50F
LA JUNTA       PTSUNNY   51  25  36 NE8       30.50F
LAMAR          CLOUDY    51  22  31 N10       30.49F
SPRINGFIELD      N/A     48  20  32 N16       30.50F
$$


USA.gov is the U.S. government's official web portal to all federal, state and local government web resources and services.